Probability
0 0 0 0 0 0 0 0 0 0 0 0 0 0 0 0 0 0 0 0 0 0 0 0 0 0 0 0 0 0 0 0 0 0 0 6 3 3
0 0 0 0 0 0 0 0 0 0 0 0 0 0 0 0 0 0 0 0 0 0 0 0 0 0 0 0 0 0 0 0 0 0 0 0 0 0
0 0 0 0 0 0 0 0 0 0 0 0 0 0 0 0 0 0 0 0 0 0 0 0 0 0 0 0 0 0 0 0 0 0 0 0 0 0
0 0 0 0 0 0 0 0 0 0 0 0 0 0 0 0 0 0 0 0 0 0 0 0 0 0 0 0 0 0 0 0 0 0 0 0 0 0
0 0 0 0 0 0 0 0 0 0 0 0 0 0 0 0 0 0 0 0 0 0 0 0 0 0 0 0 0 0 0 0 0 0 0 0 0 0
0 0 0 0 0 0 0 0 0 0 0 0 0 0 0 0 0 0 0 0 0 0 0 0 0 0 0 0 0 0 0 0 0 0 0 0 0 0
0 0 0 0 0 0 0 0 0 0 0 0 0 0 0 0 0 0 0 0 0 0 0 0 0 0 0 0 0 0 0 0 0 0 0 0 0 0
0 0 0 0 0 0 0 0 0 0 0 0 0 0 0 0 0 0 0 0 0 0 0 0 0 0 0 0 0 0 0 0 0 0 0 0 0 0
0 0 0 0 0 0 0 0 0 0 0 0 0 0 0 0 0 0 0 0 0 0 0 0 0 0 0 0 0 0 0 0 0 0 0 0 0 0
0 0 0 0 0 0 0 0 0 0 0 0 0 0 0 0 0 0 0 0 0 0 0 0 0 0 0 0 0 0 0 0 0 0 0 0 0 0
0 0 0 0 0 0 0 0 0 0 0 0 0 0 0 0 0 0 0 0 0 0 0 0 0 0 0 0 0 0 0 0 0 0 0 0 0 0
0 0 0 0 0 0 0 0 0 0 0 0 0 0 0 0 0 0 0 0 0 0 0 0 0 0 0 0 0 0 0 0 0 0 0 0 0 0
0 0 0 0 0 0 0 0 0 0 0 0 0 0 0 0 0 0 0 0 0 0 0 0 0 0 0 0 0 0 0 0 0 0 0 0 0 0
0 0 0 0 0 0 0 0 0 0 0 0 0 0 0 0 0 0 0 0 0 0 0 0 0 0 0 0 0 0 0 0 0 0 0 0 0 0
0 0 0 0 0 0 0 0 0 0 0 0 0 0 0 0 0 0 0 0 0 0 0 0 0 0 0 0 0 0 0 0 0 0 0 0 0 0
0 0 0 0 0 0 0 0 0 0 0 0 0 0 0 0 0 0 0 0 0 0 0 0 0 0 0 0 0 0 0 0 0 0 0 0 0 0
0 0 0 0 0 0 0 0 0 0 0 0 0 0 0 0 0 0 0 0 0 0 0 0 0 0 0 0 0 0 0 0 0 0 0 0 0 0
0 0 0 0 0 0 0 0 0 0 0 0 0 0 0 0 0 0 0 0 0 0 0 0 0 0 0 0 0 0 0 0 0 0 0 0 0 0
0 0 0 0 0 0 0 0 0 0 0 0 0 0 0 0 0 0 0 0 0 0 0 0 0 0 0 0 0 0 0 0 0 0 0 0 0 0
0 0 0 0 0 0 0 0 0 0 0 0 0 0 0 0 0 0 0 0 0 0 0 0 0 0 0 0 0 0 0 0 0 0 0 0 0 0
0 0 0 0 0 0 0 0 0 0 0 0 0 0 0 0 0 0 0 0 0 0 0 0 0 0 0 0 0 0 0 0 0 0 0 0 0 0
0 0 0 0 0 0 0 0 0 0 0 0 0 0 0 0 0 0 0 0 0 0 0 0 0 0 0 0 0 0 0 0 0 0 0 0 0 0
0 0 0 0 0 0 0 0 0 0 0 0 0 0 0 0 0 0 0 0 0 0 0 0 0 0 0 0 0 0 0 0 0 0 0 0 0 0
Height
5860 5860 5859 5858 5857 5856 5854 5853 5853 5851 5850 5849 5847 5845 5843 5841 5840 5839 5839 5838 5837 5835 5833 5833 5832 5832 5832 5832 5833 5832 5832 5831 5830 5829 5828 5828 5828 5829
5859 5858 5857 5856 5855 5853 5852 5851 5849 5848 5847 5846 5844 5843 5841 5840 5839 5838 5836 5835 5833 5831 5829 5829 5828 5827 5827 5827 5827 5826 5825 5825 5824 5823 5822 5821 5822 5822
5857 5856 5855 5854 5852 5851 5850 5848 5847 5846 5844 5843 5842 5840 5839 5838 5836 5835 5833 5832 5830 5828 5826 5825 5824 5823 5823 5822 5822 5820 5819 5818 5818 5817 5816 5815 5815 5815
5855 5854 5852 5851 5850 5848 5847 5846 5844 5843 5842 5840 5839 5838 5837 5835 5834 5832 5831 5829 5827 5825 5823 5822 5820 5819 5818 5817 5816 5815 5813 5812 5811 5810 5809 5809 5808 5807
5852 5851 5850 5848 5847 5846 5844 5843 5841 5840 5839 5837 5836 5835 5833 5832 5830 5829 5827 5825 5823 5822 5820 5818 5816 5815 5813 5812 5810 5809 5807 5805 5804 5803 5802 5801 5800 5799
5849 5848 5847 5845 5844 5842 5841 5839 5838 5836 5835 5833 5832 5831 5830 5828 5826 5825 5823 5821 5819 5818 5815 5813 5811 5809 5807 5805 5804 5802 5800 5798 5796 5795 5794 5792 5791 5790
5846 5844 5843 5842 5840 5839 5837 5836 5834 5833 5831 5830 5828 5827 5825 5824 5822 5821 5819 5817 5815 5813 5810 5808 5805 5803 5801 5798 5796 5794 5792 5790 5788 5786 5784 5783 5781 5780
5842 5841 5839 5838 5836 5835 5833 5832 5831 5829 5827 5826 5824 5822 5821 5819 5817 5815 5814 5812 5810 5808 5805 5802 5799 5796 5793 5791 5788 5786 5783 5780 5778 5776 5774 5772 5770 5768
5838 5836 5835 5834 5832 5831 5829 5828 5826 5824 5823 5821 5819 5817 5815 5814 5812 5810 5807 5805 5803 5800 5798 5795 5792 5789 5785 5782 5779 5776 5774 5771 5768 5765 5762 5760 5758 5756
5833 5832 5830 5829 5828 5826 5824 5823 5821 5819 5817 5815 5814 5811 5809 5807 5805 5803 5800 5798 5795 5792 5789 5787 5784 5780 5777 5773 5770 5766 5764 5761 5758 5754 5751 5748 5745 5743
5828 5827 5826 5824 5823 5821 5819 5818 5816 5813 5811 5809 5807 5805 5802 5800 5798 5795 5793 5790 5787 5784 5780 5777 5774 5771 5768 5764 5760 5756 5753 5750 5747 5743 5739 5736 5733 5731
5824 5822 5821 5819 5818 5816 5814 5812 5810 5808 5805 5803 5800 5798 5795 5792 5790 5787 5784 5781 5777 5775 5771 5768 5764 5761 5758 5755 5750 5746 5742 5739 5735 5732 5728 5724 5721 5718
5819 5817 5815 5814 5812 5810 5808 5806 5804 5801 5799 5796 5793 5790 5787 5784 5781 5778 5775 5771 5768 5765 5761 5758 5754 5750 5746 5743 5739 5735 5731 5727 5724 5720 5716 5713 5709 5706
5813 5812 5810 5808 5806 5804 5802 5799 5797 5794 5792 5789 5786 5783 5779 5776 5772 5769 5765 5762 5758 5754 5750 5747 5743 5739 5735 5731 5728 5723 5719 5715 5711 5708 5704 5700 5696 5693
5808 5806 5804 5802 5799 5797 5794 5792 5789 5787 5784 5781 5778 5774 5770 5767 5763 5759 5755 5752 5748 5743 5739 5735 5731 5727 5723 5718 5715 5711 5707 5703 5698 5695 5691 5687 5683 5680
5802 5800 5797 5795 5792 5790 5787 5784 5782 5779 5776 5773 5769 5765 5762 5758 5754 5750 5746 5742 5738 5733 5728 5724 5719 5715 5711 5706 5702 5698 5694 5690 5686 5682 5678 5674 5670 5666
5795 5793 5790 5788 5785 5782 5779 5777 5774 5770 5767 5764 5760 5757 5753 5749 5745 5740 5736 5732 5727 5723 5718 5713 5708 5704 5699 5696 5691 5686 5682 5678 5673 5669 5666 5662 5657 5653
5789 5786 5783 5780 5778 5775 5772 5769 5765 5762 5759 5755 5751 5747 5743 5739 5735 5731 5726 5722 5717 5713 5708 5703 5699 5694 5690 5684 5679 5674 5670 5665 5661 5656 5652 5649 5645 5640
5781 5778 5776 5773 5770 5767 5764 5760 5757 5753 5750 5746 5742 5738 5734 5729 5725 5721 5716 5712 5707 5702 5697 5692 5688 5683 5679 5674 5668 5662 5657 5653 5649 5644 5640 5635 5631 5627
5773 5771 5768 5765 5762 5758 5755 5752 5748 5744 5741 5737 5733 5728 5724 5719 5715 5710 5706 5701 5696 5691 5686 5681 5676 5671 5665 5661 5657 5652 5645 5640 5636 5632 5627 5622 5618 5613
5766 5763 5760 5757 5753 5750 5746 5742 5739 5735 5731 5727 5723 5718 5714 5709 5704 5699 5695 5690 5685 5680 5675 5670 5664 5658 5653 5649 5645 5640 5634 5627 5622 5618 5614 5609 5605 5600
5757 5755 5752 5748 5744 5740 5737 5733 5729 5725 5721 5717 5712 5708 5703 5698 5693 5688 5683 5678 5673 5668 5663 5658 5652 5647 5641 5637 5632 5627 5622 5617 5610 5605 5599 5595 5590 5586
5749 5746 5743 5739 5735 5731 5727 5723 5719 5715 5711 5706 5701 5697 5692 5687 5682 5677 5672 5667 5661 5656 5651 5645 5640 5635 5629 5624 5619 5614 5609 5604 5599 5594 5588 5582 5576 5572
Wind_Speed
9 8 9 9 10 10 10 11 11 11 11 11 11 11 11 11 11 12 13 14 15 16 16 17 17 18 19 20 21 22 22 22 22 23 24 24 25 25
8 9 9 10 10 11 11 12 12 11 11 11 11 11 11 11 12 12 13 14 14 14 15 16 16 17 18 19 21 22 22 22 22 22 23 24 25 26
10 10 10 11 11 12 12 12 12 12 12 12 11 12 12 12 12 13 14 14 15 14 15 16 16 17 17 19 20 22 23 23 23 23 24 25 25 26
11 11 11 11 12 12 13 13 13 14 14 13 13 13 14 14 14 15 16 16 16 15 16 16 17 18 19 20 22 23 24 24 24 25 25 25 26 27
11 12 13 13 13 13 14 14 14 15 15 15 15 15 16 16 16 17 17 17 17 17 18 18 19 20 21 22 23 23 24 25 26 26 26 27 28 29
13 14 15 15 15 15 15 15 16 16 16 16 16 17 17 17 17 18 18 18 19 20 20 21 21 22 23 24 25 25 25 26 27 28 29 30 31 31
14 15 15 16 16 16 16 17 17 17 17 17 17 18 18 18 18 19 19 20 21 21 22 23 24 24 25 26 27 28 28 29 30 31 32 33 33 34
16 16 16 17 17 17 17 18 18 19 19 19 20 20 20 21 21 22 22 23 23 24 24 25 26 27 28 29 30 30 31 32 33 33 34 35 36 37
17 17 18 18 19 19 20 20 20 20 21 21 22 22 23 24 24 24 25 26 26 27 27 27 28 29 30 31 32 32 33 33 34 35 36 37 38 38
18 18 19 19 20 21 21 21 21 21 22 23 23 24 25 25 26 27 28 28 29 30 30 30 31 31 32 33 33 33 34 34 35 36 37 38 38 39
19 19 19 20 21 21 22 22 23 23 24 24 25 26 27 28 29 30 30 31 31 31 32 32 33 33 33 34 34 35 35 36 36 37 37 38 38 38
19 20 20 21 22 22 23 23 24 25 26 27 27 28 29 30 31 32 32 32 32 32 33 34 34 35 35 35 36 37 37 37 38 38 38 38 39 39
20 21 22 23 23 24 25 26 27 27 28 28 29 30 31 32 32 33 33 33 33 34 35 36 36 36 37 37 37 38 39 39 39 40 40 40 40 40
22 22 23 23 24 25 27 27 28 29 29 29 30 31 32 33 33 34 34 35 36 37 37 38 38 39 40 39 39 40 41 41 41 41 40 41 41 41
23 24 25 25 26 27 28 29 29 30 30 31 32 32 34 34 35 36 36 37 37 39 40 40 40 40 41 41 41 41 41 41 41 41 41 41 42 42
24 25 26 26 27 28 28 29 29 30 31 32 33 34 35 36 37 37 37 38 38 39 40 40 40 40 40 40 41 41 41 41 41 41 41 42 42 43
25 26 27 27 27 28 29 30 30 31 32 33 34 35 36 37 37 37 37 38 38 38 39 40 40 41 41 41 41 41 41 42 42 42 42 42 42 43
27 27 28 28 28 29 31 31 32 32 33 34 36 37 37 37 38 38 37 38 38 38 39 40 40 41 41 41 42 42 43 43 43 43 44 43 43 44
28 28 29 29 30 31 32 33 33 34 34 35 36 37 38 38 38 38 38 39 39 40 40 41 41 42 42 42 41 42 43 44 43 44 44 44 44 45
28 29 30 31 33 33 34 34 35 35 35 36 38 38 39 39 39 40 40 40 41 41 42 42 43 43 43 42 42 42 44 44 44 45 45 45 45 45
30 30 32 33 34 35 35 35 36 36 37 38 39 40 40 40 41 41 41 42 43 43 43 43 43 44 43 43 43 43 44 46 46 46 46 46 45 45
31 32 33 34 35 35 36 36 37 38 39 39 40 40 41 42 42 42 42 43 44 43 43 43 44 44 44 44 44 44 44 45 45 46 46 47 47 46
32 33 34 35 36 36 37 37 38 39 40 40 41 42 42 42 43 43 43 44 43 43 43 43 43 44 44 44 45 45 45 45 45 45 46 46 46 46
Wind_Direction
295 294 294 296 300 304 304 305 306 307 306 303 301 300 297 294 292 289 290 290 288 285 284 281 279 277 275 275 275 275 276 276 276 275 274 272 270 270
294 297 297 301 303 305 305 307 307 305 304 303 304 300 297 296 298 298 296 294 291 291 289 286 282 280 280 282 280 278 279 279 279 277 277 275 273 272
293 298 300 301 303 304 305 306 304 303 302 302 302 301 300 299 299 300 299 299 297 295 292 290 288 286 284 284 285 283 282 281 281 280 279 278 276 275
293 297 302 306 305 307 308 307 303 303 302 301 299 299 298 298 300 302 302 300 298 296 293 292 291 290 287 287 288 286 285 283 281 281 281 280 278 277
290 294 298 300 301 304 307 307 304 301 298 297 299 298 299 298 297 300 302 300 298 295 294 292 292 291 290 290 290 289 288 285 283 280 280 278 277 277
289 293 296 297 297 300 302 303 304 302 298 295 296 297 297 299 299 298 298 297 295 294 295 294 293 294 293 292 292 292 291 288 286 283 280 279 279 278
289 292 293 296 298 299 300 301 302 302 301 299 297 297 297 297 298 297 296 297 296 296 296 297 296 296 296 295 295 294 292 289 287 285 283 281 280 279
288 290 292 294 296 298 299 300 300 300 299 297 296 297 296 296 297 297 298 297 298 297 297 297 296 296 296 295 295 294 293 291 290 288 286 283 282 281
287 290 291 293 294 295 296 296 297 297 298 297 296 296 296 297 296 297 297 298 298 297 297 296 296 296 295 296 296 294 293 292 291 290 290 286 283 282
288 291 292 294 294 295 295 296 297 298 298 297 296 296 296 296 296 296 297 297 298 297 296 296 296 296 297 297 297 295 294 293 293 292 291 290 287 285
290 291 294 295 296 296 296 296 297 298 298 297 296 296 297 297 296 297 297 297 296 296 296 296 296 296 296 296 296 296 296 294 294 293 292 291 289 287
291 292 292 294 296 296 297 297 298 298 299 298 298 298 298 299 298 298 299 298 297 297 297 297 298 297 296 295 295 294 294 294 293 293 293 292 291 289
293 295 294 293 294 295 296 297 298 299 299 298 298 299 299 300 301 300 299 298 298 298 298 298 297 297 298 297 295 294 294 294 294 294 294 293 292 290
296 296 298 296 295 295 296 298 298 299 299 298 299 299 300 302 302 302 300 298 298 298 298 297 297 297 298 297 295 295 295 295 295 295 295 294 293 291
296 297 297 298 298 297 297 298 298 298 299 299 300 300 301 302 303 302 301 299 298 298 298 298 297 298 299 298 297 297 297 297 297 296 296 295 294 292
296 297 298 298 299 300 298 298 299 299 300 300 301 301 302 303 303 303 302 301 300 300 300 299 299 300 301 300 300 299 299 298 298 297 296 296 295 294
297 298 298 298 299 301 300 299 299 300 300 300 301 302 303 304 304 304 304 303 302 301 301 301 301 302 302 301 300 300 300 299 298 298 297 297 296 296
297 298 298 299 298 300 301 301 300 301 301 301 302 303 304 304 305 305 305 304 303 303 302 301 301 302 302 301 301 300 299 299 299 298 298 297 297 297
297 298 299 299 299 299 301 302 301 301 302 303 303 303 304 304 305 305 304 302 301 302 303 303 302 302 301 300 301 301 301 300 300 300 299 299 298 298
296 298 299 301 301 300 301 302 302 302 302 303 303 303 304 305 305 304 303 302 302 301 301 302 303 302 302 302 302 301 301 301 301 301 301 300 300 300
295 297 299 301 302 302 302 302 302 302 302 302 302 303 304 304 305 304 303 303 302 301 301 301 302 302 302 302 302 303 302 302 302 302 302 301 301 301
295 298 300 302 303 304 303 303 303 303 303 304 303 303 303 304 305 306 305 304 303 301 301 301 302 302 303 302 303 303 303 303 303 303 303 303 302 302
295 298 300 301 302 303 303 303 303 303 303 303 303 303 303 304 305 306 306 306 304 302 302 301 301 301 302 303 303 303 303 303 303 304 304 304 304 304